User: anonymous   Login
Location: Unspecified
(0.0000°N, 0.0000°E)
Time: 19:58:31
(UTC+00:00)
Language:

Terriers - Orbit

View from above orbital plane
View from above orbital plane
View from above satellite
View from above satellite

Ground track
Ground track

The orbit data is extracted from the following two-line orbital elements,

1 25735U 99026A   18016.92737710 +.00001554 +00000-0 +33263-4 0  9996
2 25735 097.1985 185.8803 0003518 332.3485 027.7578 15.46337781039251
Epoch (UTC): 16 January 2018 22:15:25
Eccentricity: 0.0003518
inclination: 97.1985°
perigee height: 425 km
apogee height: 430 km
right ascension of ascending node: 185.8803°
argument of perigee: 332.3485°
revolutions per day: 15.46337781
mean anomaly at epoch: 27.7578°
orbit number at epoch: 3925

The dashed part of the orbit path shows where the satellite is in the earth's shadow,  

DLR